Location: Saint Louis
(38.6272°N, 90.1978°W)
Time: 03:33:21
(UTC-05:00)

ISS - Pass Details

Date: 26 December 2012
Orbit: 401 x 404 km, 51.6° (Epoch: 28 July)

Event Time Altitude Azimuth Distance (km) Brightness Sun altitude
Rises 17:44:16 0° 317° (NW) 2,391 0.9 -11.1°
Reaches altitude 10° 17:47:04 10° 342° (NNW) 1,523 -0.4 -11.6°
Maximum altitude 17:49:09 15° 19° (NNE) 1,249 -1.2 -12.0°
Enters shadow 17:49:47 14° 32° (NNE) 1,277 -1.3 -12.1°
